CW0213 Weather Reports


Display with metric or nautical units.
time (UTC)temp
F
wind
direction
speed
MPH
gust
MPH
rain 1hr
in
rain 24hr
in
rain mn
in
humidity
%
barometer
mb
20260503184632 73 262 3.0 7.0 0.00 0.00 0.00 61 1010.2
20260503183033 71 257 2.0 7.0 0.00 0.00 0.00 64 1010.5
20260503181521 73 242 3.0 8.0 0.00 0.00 0.00 61 1010.6
20260503180019 72 41 0.0 4.0 0.00 0.00 0.00 55 1010.7
20260503174512 72 22 2.0 4.0 0.00 0.00 0.00 55 1011.0
20260503173009 72 36 1.0 4.0 0.00 0.00 0.00 55 1011.1
20260503171505 71 26 0.0 3.0 0.00 0.00 0.00 57 1011.2
20260503170118 69 43 1.0 3.0 0.00 0.00 0.00 57 1011.2
20260503100106 55 26 0.0 0.0 0.00 0.00 0.00 83 1011.0
20260503081550 57 355 0.0 1.0 0.00 0.00 0.00 79 1011.0
20260503071544 58 355 0.0 2.0 0.00 0.00 0.00 77 1010.9
20260503054556 61 257 1.0 4.0 0.00 0.00 0.00 70 1010.5
20260503053036 62 258 1.0 4.0 0.00 0.00 0.00 68 1010.5
20260503051535 62 256 0.0 1.0 0.00 0.00 0.00 67 1010.5
20260503050036 63 253 0.0 2.0 0.00 0.00 0.00 65 1010.6
20260503044541 64 252 0.0 3.0 0.00 0.00 0.00 63 1010.6
20260503043042 64 252 0.0 4.0 0.00 0.00 0.00 64 1010.6
20260503041534 64 246 1.0 4.0 0.00 0.00 0.00 63 1010.4
20260503040036 65 261 0.0 0.0 0.00 0.00 0.00 63 1010.2
20260503034536 66 261 0.0 0.0 0.00 0.00 0.00 62 1010.1
20260503033031 66 261 0.0 0.0 0.00 0.00 0.00 62 1010.1
20260503031532 67 261 1.0 3.0 0.00 0.00 0.00 62 1010.1
20260503030035 68 261 0.0 3.0 0.00 0.00 0.00 60 1010.0
20260503024535 69 261 0.0 3.0 0.00 0.00 0.00 60 1009.9
20260503023028 69 258 2.0 3.0 0.00 0.00 0.00 58 1010.0
20260503021528 70 246 2.0 4.0 0.00 0.00 0.00 57 1010.2
20260503020027 71 258 0.0 4.0 0.00 0.00 0.00 56 1010.2
20260503014527 72 259 1.0 4.0 0.00 0.00 0.00 56 1010.2
20260503013036 73 238 0.0 4.0 0.00 0.00 0.00 54 1010.2
20260503011525 73 248 1.0 5.0 0.00 0.00 0.00 53 1010.2
20260503010024 74 236 0.0 4.0 0.00 0.00 0.00 53 1010.3
20260503004530 74 259 1.0 6.0 0.00 0.00 0.00 54 1010.5
20260503003019 74 254 0.0 8.0 0.00 0.00 0.00 55 1010.6
20260503001519 74 242 1.0 8.0 0.00 0.00 0.00 54 1010.6
20260503000017 74 254 1.0 6.0 0.00 0.00 0.00 56 1010.6
20260502234514 74 251 1.0 7.0 0.00 0.00 0.00 56 1010.8
20260502233026 74 64 2.0 9.0 0.00 0.00 0.00 53 1011.0
20260502231509 74 129 1.0 11.0 0.00 0.00 0.00 54 1011.2
20260502230008 74 73 2.0 9.0 0.00 0.00 0.00 53 1011.2
20260502224505 73 341 1.0 8.0 0.00 0.00 0.00 53 1011.8
20260502223002 73 246 2.0 8.0 0.00 0.00 0.00 52 1012.0
20260502221600 73 198 2.0 8.0 0.00 0.00 0.00 54 1012.2
20260502220058 73 238 1.0 9.0 0.00 0.00 0.00 57 1012.3
20260502214558 72 113 1.0 7.0 0.00 0.00 0.00 58 1012.3
20260502213052 72 42 2.0 8.0 0.00 0.00 0.00 60 1012.4
20260502211553 72 238 3.0 10.0 0.00 0.00 0.00 60 1012.8
20260502210100 72 256 1.0 5.0 0.00 0.00 0.00 61 1012.7
20260502204555 71 277 1.0 8.0 0.00 0.00 0.00 61 1012.8
20260502203052 70 5 3.0 9.0 0.00 0.00 0.00 63 1012.8
20260502201548 71 261 2.0 8.0 0.00 0.00 0.00 64 1013.1
20260502200051 70 254 4.0 10.0 0.00 0.00 0.00 65 1013.2
20260502194545 71 271 1.0 8.0 0.00 0.00 0.00 68 1013.2
20260502193046 70 246 1.0 9.0 0.00 0.00 0.00 68 1013.2
20260502191544 71 250 2.0 8.0 0.00 0.00 0.00 68 1013.4
20260502190045 71 261 2.0 7.0 0.00 0.00 0.00 68 1013.4